User: anonymous   Login
Location: Cutler
(25.6150°N, 80.3110°W)
Time: 02:41:23
(UTC-05:00)
Language:

Vanguard 1 Rocket - Orbit

View from above orbital plane
View from above orbital plane
View from above satellite
View from above satellite

Ground track
Ground track

The orbit data is extracted from the following two-line orbital elements,

1    16U 58002A   18014.84611589 +.00000029 +00000-0 +63231-4 0  9998
2    16 034.2557 188.8770 2022286 107.9220 275.1163 10.48628334365959
Epoch (UTC): 14 January 2018 20:18:24
Eccentricity: 0.2022286
inclination: 34.2557°
perigee height: 656 km
apogee height: 4222 km
right ascension of ascending node: 188.8770°
argument of perigee: 107.9220°
revolutions per day: 10.48628334
mean anomaly at epoch: 275.1163°
orbit number at epoch: 36595

The dashed part of the orbit path shows where the satellite is in the earth's shadow,  

DLR